[[{"header":{"parameterUnit":"m.s-1","parameterCategory":1,"la1":30.2991,"la2":30.254,"lo1":-89.0895,"lo2":-89.0444,"dy":0.0017,"dx":0.0017,"nx":28,"ny":28,"refTime":"2025-02-09T09:00:00:Z","depth":0,"parameterNumber":2,"parameterNumberName":"U-component_of_WINDS"},"data":[0,0,0,0,0,0,0,0,0,0,0,0,0,0,0,0,0,0,0,0,0,0,0,0,0,0,0,0,0,0,0,0,0,0,0,0,0,0,0,0,0,0,0,0,0,0,0,0,0,0,0,0,0,0,0,0,0,0,-3.5172,-3.5172,0,-3.5213,-3.5214,-3.5214,-3.5168,-3.5166,-3.5165,-3.5163,-3.5206,-3.5208,-3.5211,0,0,0,0,0,0,0,0,0,0,0,0,0,-3.5054,-3.5057,-3.5172,-3.5172,-3.5173,-3.5213,-3.5214,-3.5214,-3.5168,-3.5166,-3.5164,-3.5162,-3.5205,-3.5208,-3.5211,0,0,0,0,0,0,0,0,0,0,0,0,0,-3.5102,-3.5057,-3.5171,-3.5155,-3.5154,-3.5213,-3.5214,-3.5214,-3.5169,-3.5166,-3.5164,-3.5161,-3.5204,-3.5208,-3.5212,-3.529,0,0,-3.5224,-3.5226,0,0,0,0,0,0,0,0,-3.5099,-3.5106,-3.5157,-3.5156,-3.5155,-3.5183,-3.5188,-3.524,-3.517,-3.5163,-3.5163,-3.516,-3.52,-3.5204,-3.5218,-3.5292,-3.5294,-3.5225,-3.5227,-3.5229,-3.523,0,0,0,0,0,0,0,-3.5096,-3.5104,-3.5188,-3.5157,-3.5156,-3.5146,-3.5149,-3.5197,-3.5196,-3.5163,-3.516,-3.5166,-3.5199,-3.5214,-3.5219,-3.5294,-3.5225,-3.5228,-3.5231,-3.5233,-3.5435,-3.5438,0,0,0,0,0,0,-3.5094,-3.5101,-3.5187,-3.5189,-3.512,-3.515,-3.5154,-3.5176,-3.5195,-3.5195,-3.5168,-3.5163,-3.5208,-3.5214,-3.522,-3.5312,-3.5229,-3.5233,-3.5235,-3.5432,-3.5436,-3.5439,0,0,0,0,0,0,-3.5092,-3.5102,-3.5185,-3.5145,-3.5154,-3.5155,-3.518,-3.5179,-3.5193,-3.5199,-3.5198,-3.5183,-3.5206,-3.5214,-3.5273,-3.5313,-3.5235,-3.5239,-3.5429,-3.5433,-3.5437,-3.5498,0,0,0,0,0,0,-3.5089,-3.5102,-3.5131,-3.5145,-3.5157,-3.5237,-3.5183,-3.5181,-3.5201,-3.5195,-3.5213,-3.5213,-3.5205,-3.5267,-3.5277,-3.5317,-3.5242,-3.5425,-3.5431,-3.5436,-3.5492,-3.5504,-3.5514,0,0,0,0,0,-3.5085,-3.5146,-3.5132,-3.5143,-3.5193,-3.5239,-3.5245,-3.5235,-3.5204,-3.5233,-3.5237,-3.5213,-3.5308,-3.5273,-3.5284,-3.5327,-3.5423,-3.5429,-3.5436,-3.5487,-3.5501,-3.5513,0,0,0,0,0,0,-3.5135,-3.5147,-3.5132,-3.52,-3.5219,-3.5231,-3.5268,-3.525,-3.5278,-3.5271,-3.5257,-3.5261,-3.5324,-3.5331,-3.5293,-3.5404,-3.536,-3.5369,-3.5396,-3.5409,-3.542,-3.5416,-3.5245,0,0,0,0,0,-3.5154,-3.5191,-3.52,-3.5259,-3.5269,-3.5267,-3.5287,-3.5277,-3.5296,-3.5304,-3.5312,-3.5331,-3.5365,-3.5388,-3.542,-3.5494,-3.5497,-3.5529,-3.554,-3.5548,-3.5556,-3.5596,-3.561,-3.546,-3.546,-3.546,0,0,-3.5194,-3.5205,-3.5229,-3.5269,-3.5282,-3.5321,-3.5274,-3.5316,-3.5345,-3.531,-3.5366,-3.5373,-3.5394,-3.5461,-3.5491,-3.5469,-3.5598,-3.5557,-3.5564,-3.5566,-3.5604,-3.5618,-3.5631,-3.5465,-3.5464,-3.5463,0,0,-3.5285,-3.5297,-3.5348,-3.5363,-3.5384,-3.5383,-3.5395,-3.5411,-3.5414,-3.547,-3.5446,-3.548,-3.5539,-3.5555,-3.5571,-3.5672,-3.5651,-3.5683,-3.5738,-3.5777,-3.5789,-3.5799,-3.5835,-3.5848,-3.5691,-3.5691,-3.5691,0,-3.5331,-3.5387,-3.5376,-3.542,-3.5439,-3.5411,-3.5462,-3.5478,-3.5509,-3.5522,-3.5498,-3.5573,-3.5585,-3.5655,-3.568,-3.5695,-3.5708,-3.568,-3.5788,-3.5799,-3.5808,-3.5842,-3.5855,-3.5695,-3.5694,-3.5694,-3.5694,0,-3.5443,-3.5483,-3.5521,-3.5552,-3.5575,-3.5623,-3.562,-3.5645,-3.5635,-3.5636,-3.5695,-3.5709,-3.5743,-3.576,-3.575,-3.583,-3.5816,-3.5791,-3.5746,-3.5826,-3.5857,-3.587,-3.57,-3.5699,-3.5698,-3.5697,0,0,-3.5563,-3.5589,-3.5603,-3.5617,-3.564,-3.5671,-3.5719,-3.5753,-3.5775,-3.5798,-3.5837,-3.589,-3.5867,-3.5885,-3.5877,-3.5912,-3.5991,-3.5883,-3.5883,-3.5901,-3.608,-3.6097,-3.6112,-3.5978,-3.598,-3.5982,-3.6078,0,-3.5654,-3.5735,-3.5728,-3.5806,-3.5842,-3.5818,-3.586,-3.5879,-3.5883,-3.5915,-3.5919,-3.5956,-3.5924,-3.5935,-3.5969,-3.5974,-3.6026,-3.5967,-3.6014,-3.6016,-3.6007,-3.6129,-3.6147,-3.6236,-3.609,-3.6092,-3.6093,0,-3.577,-3.5797,-3.5879,-3.5897,-3.5913,-3.595,-3.5981,-3.6013,-3.6035,-3.6035,-3.6057,-3.6044,-3.6092,-3.6049,-3.6116,-3.6076,-3.6096,-3.6102,-3.6105,-3.6107,-3.6058,-3.6133,-3.6264,-3.6277,-3.6113,-3.6111,-3.611,0,-3.5848,-3.5906,-3.5962,-3.5976,-3.5999,-3.6026,-3.6037,-3.6056,-3.6078,-3.6106,-3.612,-3.6154,-3.6172,-3.6198,-3.6195,-3.6164,-3.6263,-3.6219,-3.6265,-3.6265,-3.6284,-3.6283,-3.6419,-3.63,-3.63,-3.63,-3.6299,0,-3.5949,-3.5999,-3.5998,-3.6032,-3.6089,-3.6081,-3.6137,-3.6145,-3.6163,-3.6199,-3.6181,-3.6216,-3.621,-3.6244,-3.6242,-3.6298,-3.6307,-3.6308,-3.6307,-3.6309,-3.6308,-3.6319,-3.6312,-3.6303,-3.6302,-3.6302,-3.6301,0,-3.6045,-3.6046,-3.6106,-3.6124,-3.613,-3.6171,-3.6186,-3.6219,-3.6223,-3.6269,-3.6279,-3.6285,-3.6325,-3.6325,-3.637,-3.6369,-3.6437,-3.6429,-3.6429,-3.6427,-3.6472,-3.6467,-3.6618,-3.6637,-3.6508,-3.6509,-3.651,0,-3.6108,-3.6146,-3.6169,-3.6192,-3.6205,-3.6242,-3.6264,-3.626,-3.6284,-3.6313,-3.6342,-3.6381,-3.6411,-3.6477,-3.6485,-3.652,-3.6512,-3.6563,-3.6517,-3.6518,-3.6512,-3.6509,-3.6512,-3.6571,-3.6573,-3.6574,-3.6575,0,-3.622,-3.6219,-3.6251,-3.6285,-3.6313,-3.6339,-3.6363,-3.6383,-3.6381,-3.6409,-3.645,-3.6474,-3.6522,-3.656,-3.6595,-3.6607,-3.6591,-3.659,-3.6602,-3.6603,-3.6601,-3.6602,-3.6452,-3.6585,-3.6584,-3.6584,-3.6583,-3.6583,-3.63,-3.6333,-3.6355,-3.6392,-3.641,-3.6434,-3.6466,-3.6474,-3.6508,-3.6546,-3.6542,-3.6588,-3.6611,-3.6655,-3.6671,-3.6707,-3.6689,-3.6707,-3.6711,-3.6715,-3.6719,-3.6597,-3.6714,-3.6713,-3.6713,-3.6713,-3.6712,0,-3.641,-3.6423,-3.6458,-3.6493,-3.6523,-3.6506,-3.6533,-3.6559,-3.6599,-3.6622,-3.6653,-3.6701,-3.6739,-3.6751,-3.6788,-3.6815,-3.6809,-3.6825,-3.6821,-3.6825,-3.6734,-3.6719,-3.6829,-3.6829,-3.6829,-3.6829,-3.6829,-3.6829,-3.647,-3.6525,-3.6528,-3.6592,-3.6605,-3.665,-3.6667,-3.6689,-3.6707,-3.6761,-3.6793,-3.6801,-3.682,-3.6859,-3.6893,-3.6896,-3.691,-3.6929,-3.6928,-3.6843,-3.6831,-3.682,-3.6806,-3.6932,-3.6932,-3.7016,-3.7017,-3.7017]},{"header":{"parameterUnit":"m.s-1","parameterCategory":1,"la1":30.2991,"la2":30.254,"lo1":-89.0895,"lo2":-89.0444,"dy":0.0017,"dx":0.0017,"nx":28,"ny":28,"refTime":"2025-02-09T09:00:00:Z","depth":0,"parameterNumber":3,"parameterNumberName":"V-component_of_WINDS"},"data":[0,0,0,0,0,0,0,0,0,0,0,0,0,0,0,0,0,0,0,0,0,0,0,0,0,0,0,0,0,0,0,0,0,0,0,0,0,0,0,0,0,0,0,0,0,0,0,0,0,0,0,0,0,0,0,0,0,0,1.8115,1.8116,0,1.8193,1.8194,1.8195,1.8222,1.8221,1.8221,1.8221,1.8299,1.8301,1.8304,0,0,0,0,0,0,0,0,0,0,0,0,0,1.7987,1.7989,1.8115,1.8116,1.8117,1.8193,1.8194,1.8195,1.8222,1.8221,1.8221,1.8221,1.8298,1.8301,1.8304,0,0,0,0,0,0,0,0,0,0,0,0,0,1.8052,1.799,1.8114,1.8139,1.8142,1.8193,1.8194,1.8196,1.8222,1.8221,1.8221,1.822,1.8297,1.8301,1.8304,1.8336,0,0,1.8315,1.8317,0,0,0,0,0,0,0,0,1.8048,1.8056,1.8134,1.8137,1.8141,1.8197,1.8178,1.8243,1.8222,1.8192,1.8221,1.822,1.8265,1.8272,1.8287,1.8339,1.8343,1.8315,1.8318,1.8319,1.832,0,0,0,0,0,0,0,1.8043,1.8053,1.8146,1.8136,1.814,1.8146,1.8155,1.819,1.823,1.8194,1.8196,1.8205,1.8267,1.8284,1.8289,1.8344,1.8315,1.8319,1.8321,1.8322,1.8428,1.8429,0,0,0,0,0,0,1.8035,1.8049,1.8143,1.8148,1.8092,1.8149,1.8158,1.818,1.823,1.8237,1.8206,1.8206,1.8278,1.8285,1.8292,1.8334,1.8319,1.8322,1.8325,1.8427,1.8428,1.8429,0,0,0,0,0,0,1.8032,1.8043,1.814,1.8099,1.8112,1.8152,1.8175,1.8181,1.8198,1.8239,1.8246,1.8215,1.8278,1.8287,1.8325,1.8337,1.8324,1.8327,1.8427,1.8428,1.8429,1.8416,0,0,0,0,0,0,1.8028,1.8042,1.8054,1.8099,1.8114,1.8172,1.8176,1.8183,1.8205,1.8206,1.825,1.8256,1.8278,1.832,1.8329,1.8342,1.833,1.8426,1.8427,1.8428,1.8416,1.8417,1.8418,0,0,0,0,0,1.8024,1.8047,1.8055,1.8066,1.813,1.8173,1.8181,1.8206,1.8205,1.8218,1.8245,1.8255,1.8334,1.8324,1.8334,1.8348,1.8425,1.8427,1.8428,1.8416,1.8417,1.8418,0,0,0,0,0,0,1.8,1.8053,1.8062,1.8101,1.8132,1.8177,1.8194,1.8206,1.8238,1.8238,1.8268,1.8277,1.8314,1.8334,1.8322,1.8382,1.838,1.8384,1.8367,1.8368,1.8369,1.8364,1.8333,0,0,0,0,0,1.8,1.803,1.8074,1.8104,1.8119,1.8154,1.8173,1.819,1.8224,1.8237,1.8266,1.8297,1.833,1.835,1.8382,1.8419,1.843,1.8434,1.8435,1.8435,1.8438,1.8461,1.8464,1.8434,1.8434,1.8434,0,0,1.7998,1.8031,1.8048,1.81,1.8126,1.8157,1.8165,1.8196,1.822,1.8241,1.828,1.8302,1.834,1.8378,1.8397,1.8397,1.8449,1.8437,1.8437,1.844,1.8463,1.8466,1.8468,1.8435,1.8435,1.8435,0,0,1.8012,1.804,1.8068,1.8095,1.8136,1.8159,1.8166,1.821,1.8226,1.8265,1.8283,1.8311,1.8365,1.8392,1.8412,1.8439,1.8451,1.8449,1.8453,1.8475,1.8478,1.848,1.8491,1.8494,1.8451,1.8451,1.8451,0,1.8006,1.8053,1.8081,1.8113,1.8136,1.8158,1.8188,1.8212,1.8261,1.8276,1.8276,1.8346,1.8373,1.8419,1.8426,1.8441,1.8451,1.8444,1.8475,1.8478,1.848,1.8491,1.8495,1.8451,1.8451,1.8451,1.8451,0,1.8044,1.8076,1.8095,1.8143,1.8167,1.8198,1.8231,1.8252,1.8268,1.8291,1.8332,1.8365,1.8405,1.8417,1.8431,1.8466,1.8465,1.8469,1.8468,1.8482,1.8493,1.8497,1.845,1.845,1.8451,1.8451,0,0,1.8043,1.8108,1.8115,1.8138,1.8185,1.8211,1.8243,1.8283,1.8302,1.8335,1.8363,1.841,1.8416,1.8439,1.8457,1.8476,1.8497,1.8479,1.848,1.8482,1.8539,1.8535,1.8539,1.8505,1.8506,1.8507,1.8536,0,1.8064,1.8123,1.815,1.8197,1.8228,1.8252,1.828,1.8312,1.8335,1.8365,1.8391,1.8424,1.8428,1.8443,1.8463,1.849,1.8509,1.8489,1.8532,1.8533,1.8522,1.8545,1.8541,1.8567,1.854,1.8541,1.8541,0,1.8096,1.8131,1.8181,1.8227,1.8241,1.8266,1.8306,1.8335,1.8372,1.8388,1.8416,1.8434,1.8469,1.8465,1.8514,1.85,1.8519,1.8536,1.8537,1.8543,1.8538,1.8551,1.8575,1.8579,1.8548,1.8547,1.8547,0,1.8092,1.8151,1.819,1.8209,1.8263,1.828,1.8304,1.8341,1.8364,1.8399,1.8415,1.8453,1.8474,1.8503,1.8531,1.8526,1.8578,1.8577,1.8593,1.8592,1.8602,1.8601,1.8631,1.8614,1.8614,1.8614,1.8614,0,1.8112,1.8142,1.8189,1.8213,1.8248,1.8279,1.8313,1.8338,1.8372,1.8401,1.8423,1.8449,1.8484,1.8516,1.8538,1.8576,1.8585,1.8599,1.8605,1.8598,1.8596,1.8611,1.861,1.8615,1.8614,1.8614,1.8614,0,1.8114,1.8146,1.819,1.8239,1.8252,1.8276,1.8317,1.8342,1.8367,1.8404,1.8414,1.8453,1.8492,1.8523,1.8572,1.8587,1.8628,1.8633,1.8615,1.8618,1.8633,1.8632,1.8673,1.8681,1.8658,1.8658,1.8658,0,1.8125,1.8149,1.8201,1.8223,1.8247,1.8281,1.8305,1.8338,1.8362,1.8409,1.8427,1.8468,1.8502,1.8562,1.8595,1.8633,1.8641,1.8653,1.8647,1.8639,1.8642,1.8641,1.8644,1.8653,1.8653,1.8654,1.8654,0,1.8141,1.8157,1.8192,1.8233,1.8262,1.8296,1.833,1.8347,1.8385,1.8412,1.8452,1.8479,1.8531,1.8571,1.8614,1.8638,1.8652,1.8656,1.8662,1.8655,1.8644,1.8651,1.8618,1.8654,1.8654,1.8654,1.8654,1.8654,1.8149,1.8172,1.8213,1.8252,1.8282,1.8314,1.834,1.8369,1.8404,1.845,1.8466,1.8508,1.8547,1.8606,1.8631,1.8664,1.8665,1.8673,1.8676,1.8677,1.8677,1.8638,1.8672,1.8672,1.8672,1.8672,1.8672,0,1.8168,1.8196,1.8231,1.828,1.831,1.8323,1.8362,1.8387,1.8424,1.846,1.8494,1.8541,1.8581,1.8617,1.8659,1.8679,1.8687,1.8689,1.8688,1.8693,1.8673,1.8664,1.8682,1.8682,1.8682,1.8682,1.8682,1.8682,1.8181,1.8222,1.8243,1.8299,1.8327,1.8369,1.8391,1.8421,1.845,1.8502,1.8536,1.856,1.8597,1.8642,1.8679,1.8689,1.8703,1.8704,1.8715,1.8696,1.8694,1.8693,1.8685,1.8707,1.8707,1.8733,1.8734,1.8734]}]]